Home   Weather   Pratteln   Past weeks

Flag for Switzerland Past Weather in Pratteln, Basel-Land, Switzerland — Yesterday and Last 2 Weeks

Now
46 °F

Mostly cloudy.


Feels Like: 46 °F
Forecast: 36 / 47 °F
Wind: 2 mph from North

Location: Bale-Mulhouse

Current Time: Feb 23, 2017 at 1:16:40 am

Latest Report: Feb 23, 2017 at 12:30 am


Visibility: N/A

Pressure: 30.01 "Hg

Humidity: 76%

Dew Point: 39 °F

Location of PrattelnLocation

Past Weather in Pratteln — Graph

°F

Pratteln Temperature Yesterday

Maximum temperature yesterday: 52 °F (at 12:00 am)
Minimum temperature yesterday: 48 °F (at 7:00 pm)
Average temperature yesterday: 50 °F

High & Low Weather Summary for the Past Weeks

 TemperatureHumidityPressure
High63 °F (Feb 15, 4:00 pm)100% (Feb 8, 12:00 am)30.57 "Hg (Feb 8, 12:00 am)
Low27 °F (Feb 19, 3:30 am)42% (Feb 15, 4:30 pm)30.01 "Hg (Feb 8, 12:00 am)
Average41 °F82%30.24 "Hg
* Reported Feb 8 12:00 am — Feb 23 12:00 am, Pratteln, Weather by CustomWeather, © 2017

Note: Actual official high and low records may vary slightly from our data, if they occured in-between our weather recording intervals... More about our weather records

Advertising

Pratteln Weather History for the Previous 24 Hours

Scroll right to see more
 ConditionsComfort  
Time TempWeatherWind HumidityBarometerVisibility
12:00 am
Thu, Feb 23
46 °FPartly cloudy.5 mph76%30.01 "HgN/A
11:30 pm
Wed, Feb 22
48 °FPartly cloudy.3 mph71%30.01 "HgN/A
11:00 pm48 °FPassing clouds.3 mph71%30.04 "HgN/A
10:30 pm48 °FPassing clouds.6 mph71%30.04 "HgN/A
10:00 pm48 °FPartly cloudy.6 mph71%30.04 "HgN/A
9:30 pm48 °FPassing clouds.5 mph71%30.04 "HgN/A
9:00 pm48 °FPassing clouds.2 mph71%30.04 "HgN/A
8:30 pm48 °FPartly cloudy.8 mph71%30.04 "HgN/A
8:00 pm48 °FPassing clouds.12 mph71%30.04 "HgN/A
7:30 pm48 °FPartly cloudy.9 mph71%30.04 "HgN/A
7:00 pm48 °FPassing clouds.9 mph71%30.04 "HgN/A
6:30 pm50 °FPartly cloudy.9 mph62%30.04 "HgN/A
6:00 pm50 °FBroken clouds.13 mph62%30.07 "HgN/A
5:30 pm50 °FBroken clouds.12 mph67%30.04 "HgN/A
5:00 pm50 °FPartly sunny.14 mph67%30.04 "HgN/A
4:30 pm52 °FPartly sunny.15 mph62%30.04 "HgN/A
4:00 pm52 °FPartly sunny.15 mph62%30.04 "HgN/A
3:30 pm52 °FPartly sunny.15 mph62%30.07 "HgN/A
3:00 pm52 °FPartly sunny.14 mph67%30.07 "HgN/A
2:30 pm52 °FPartly sunny.16 mph62%30.07 "HgN/A
2:00 pm52 °FPartly sunny.14 mph62%30.09 "HgN/A
1:30 pm52 °FPartly sunny.15 mph67%30.09 "HgN/A
1:00 pm52 °FPartly sunny.17 mph62%30.09 "HgN/A
12:30 pm50 °FPartly sunny.14 mph71%30.09 "HgN/A
12:00 pm52 °FPartly sunny.18 mph67%30.09 "HgN/A
11:30 am52 °FBroken clouds.17 mph72%30.09 "HgN/A
11:00 am52 °FPartly sunny.12 mph67%30.09 "HgN/A
10:30 am52 °FPartly sunny.16 mph67%30.09 "HgN/A
10:00 am52 °FPartly sunny.9 mph67%30.09 "HgN/A
9:30 am50 °FPartly sunny.8 mph71%30.09 "HgN/A
9:00 am50 °FBroken clouds.12 mph71%30.09 "HgN/A
8:30 am50 °FBroken clouds.9 mph76%30.09 "HgN/A
8:00 am50 °FPartly sunny.9 mph76%30.09 "HgN/A
7:30 am50 °FPartly sunny.13 mph76%30.09 "HgN/A
7:00 am50 °FPassing clouds.8 mph82%30.09 "HgN/A
6:30 am50 °FPassing clouds.8 mph82%30.07 "HgN/A
6:00 am50 °FPassing clouds.9 mph82%30.09 "HgN/A
5:30 am50 °FPassing clouds.9 mph82%30.09 "HgN/A
5:00 am50 °FPassing clouds.10 mph82%30.09 "HgN/A
4:30 am50 °FPassing clouds.1 mph82%30.09 "HgN/A
4:00 am50 °FMostly cloudy.2 mph82%30.09 "HgN/A
3:30 am50 °FMostly cloudy.3 mph82%30.09 "HgN/A
3:00 am52 °FMostly cloudy.7 mph82%30.12 "HgN/A
2:30 am52 °FPartly cloudy.7 mph82%30.12 "HgN/A
2:00 am52 °FPassing clouds.12 mph82%30.12 "HgN/A
1:30 am52 °FPassing clouds.12 mph82%30.12 "HgN/A
1:00 am52 °FPartly cloudy.14 mph82%30.12 "HgN/A
Weather by CustomWeather, © 2017

See weather overviewHow to use our weather pages